Preview of NWS' New Version of Forecast
This preview is not operational and should not be used for support decisions.

Regional Weather Roundup (RWR)

Issued by National Weather Service (NWS)

                            
000
ASUS46 KSEW 220110
RWRWA 

WASHINGTON REGIONAL WEATHER ROUNDUP
NATIONAL WEATHER SERVICE SEATTLE WA
500 PM PST THU FEB 21 2019

NOTE:"FAIR" INDICATES FEW OR NO CLOUDS BELOW 12,000 FEET WITH NO 
SIGNIFICANT WEATHER AND/OR OBSTRUCTIONS TO VISIBILITY.

WAZ507-509-555>559-220200-
SEATTLE, TACOMA, EVERETT, AND VICINITY
  
CITY           SKY/WX    TMP DP  RH WIND       PRES   REMARKS
EVERETT        CLEAR     41  25  53 CALM      30.10F                  
BOEING FIELD   CLEAR     45  27  49 N6        30.12S                  
RENTON         CLEAR     45  27  49 NW3       30.11S                  
SEATAC AIRPORT PTCLDY    44  27  51 W6        30.10F                  
JBLM-MCCHORD   CLEAR     45  32  61 CALM      30.11S                  
PUYALLUP       FAIR      45  27  49 CALM      30.10S                  
BREMERTON      CLEAR     43  27  53 E3        30.11S                  
JBLM-FT LEWIS  CLEAR     45  31  59 CALM      30.10S                  
TACOMA NARROWS CLEAR     44  22  41 CALM      30.12R                  
$$
 
WAZ001-503-506-510-514-515-220200-
NORTH INTERIOR
  
CITY           SKY/WX    TMP DP  RH WIND       PRES   REMARKS
BELLINGHAM     PTCLDY    40  26  57 CALM      30.10F                  
FRIDAY HARBOR  PTCLDY    46  20  35 CALM      30.12F                  
EASTSOUND      MOCLDY    41  25  52 CALM      30.11S                  
PORT ANGELES   PTCLDY    41  24  51 CALM      30.12F                  
EDIZ HOOK      FAIR      41  24  50 CALM      30.12F                  
PORT TOWNSEND  FAIR      43  23  45 NW3       30.11F                  
NAS WHIDBEY    MOCLDY    45  23  42 NW3       30.15                   
ARLINGTON      CLEAR     42  28  57 W3        30.11F                  
BURLINGTON     CLEAR     41  25  52 CALM      30.11S                  
$$
 
WAZ020-022-039-040-504-511-512-220200-
SOUTHWEST INTERIOR
  
CITY           SKY/WX    TMP DP  RH WIND       PRES   REMARKS
SHELTON        CLEAR     45  25  45 CALM      30.09S                  
OLYMPIA        CLEAR     46  26  45 CALM      30.11S                  
CHEHALIS       FAIR      46  30  53 CALM      30.11S                  
KELSO          PTCLDY    46  29  51 S3        30.12R                  
VANCOUVER      CLEAR     46  26  45 W5        30.11S                  
SCAPPOOSE, OR  CLEAR     50  22  33 CALM      30.11S                  
PORTLAND, OR   PTCLDY    48  27  44 W6        30.11S                  
$$
 
WAZ021-516-517-220200-
WASHINGTON COAST
  
CITY           SKY/WX    TMP DP  RH WIND       PRES   REMARKS
FORKS          PTCLDY    42  33  70 SW6       30.11S                  
HOQUIAM        PTCLDY    46  34  62 W5        30.11S                  
ASTORIA, OR    PTCLDY    43  34  70 NW10      30.10F                  
$$
 
WAZ019-023-024-040-567>569-220200-
CASCADE MOUNTAINS AND COLUMBIA GORGE
  
CITY           SKY/WX    TMP DP  RH WIND       PRES   REMARKS
STAMPEDE PASS  CLEAR     28  23  81 CALM      29.96S                  
TROUTDALE, OR  CLEAR     46  26  45 E6        30.11R                  
HOOD RIVER, OR FAIR      39  27  60 NE3       30.11S                  
THE DALLES, OR CLEAR     35  27  72 E8        30.14S                  
$$

WAZ026-027-041>044-520-521-220200-
EAST SLOPES
  
CITY           SKY/WX    TMP DP  RH WIND       PRES   REMARKS
OMAK           CLEAR     34  20  56 W6        30.06S                  
WENATCHEE      CLEAR     34  19  54 SE7       30.07F                  
ELLENSBURG     CLEAR     51  19  28 SE7       30.06S                  
YAKIMA         CLEAR     34  18  52 S6        30.11S                  
SUNNYSIDE ARPT CLEAR     33  20  59 CALM      30.13                   
YAKIMA TC      FAIR      33  19  55 S3        30.07F                  
$$

WAZ028-034-035-220200-
COLUMBIA BASIN
  
CITY           SKY/WX    TMP DP  RH WIND       PRES   REMARKS
EPHRATA        CLEAR     30  21  69 SW7       30.08F                  
MOSES LAKE     CLEAR     35  21  56 SW5       30.10F                  
PASCO          PTCLDY    29  23  78 CALM      30.18S                  
RICHLAND ARPT  CLEAR     29  25  82 W3        30.17F                  
HERMISTON, OR  CLEAR     31  23  72 NE5       30.14R                  
$$

WAZ036>038-220200-
NORTHEAST WASHINGTON
  
CITY           SKY/WX    TMP DP  RH WIND       PRES   REMARKS
SPOKANE GEIGER PTCLDY    25  11  55 W9        30.01S                  
SPOKANE FELTS  CLEAR     34  17  50 CALM      30.03S                  
FAIRCHILD AFB  CLEAR     23  12  62 W7        30.00S                  
COEURDALENE,ID CLEAR     24  14  65 N3        30.01S                  
DEER PARK      CLEAR     31  11  43 CALM      30.01F                  
$$

WAZ029>033-220200-
SOUTHEAST WASHINGTON
  
CITY           SKY/WX    TMP DP  RH WIND       PRES   REMARKS
PULLMAN        CLOUDY    20  18  92 W5        30.04R FOG              
LEWISTON, ID   CLEAR     26  19  74 S5        30.09R                  
WALLA WALLA    CLOUDY    23  18  81 NW3       30.12R HAZE             
PENDLETON, OR  CLOUDY    31  22  69 W7        30.08R                  
$$